| time (UTC) | temp F | wind direction | speed MPH | gust MPH | rain 1hr in | rain 24hr in | rain mn in | humidity % | barometer mb |
| 20260905095543 | 70 | 145 | 7.0 | 17.0 | 0.00 | 0.00 | 0.00 | 32 | 1017.8 |
| 20260905095039 | 71 | 126 | 13.0 | 16.0 | 0.00 | 0.00 | 0.00 | 33 | 1017.7 |
| 20260905094534 | 70 | 174 | 9.0 | 18.0 | 0.00 | 0.00 | 0.00 | 33 | 1017.6 |
| 20260905094033 | 70 | 147 | 10.0 | 14.0 | 0.00 | 0.00 | 0.00 | 36 | 1017.7 |
| 20260905093533 | 70 | 134 | 10.0 | 15.0 | 0.00 | 0.00 | 0.00 | 37 | 1017.6 |
| 20260905093030 | 71 | 153 | 13.0 | 16.0 | 0.00 | 0.00 | 0.00 | 33 | 1017.6 |
| 20260905092529 | 71 | 135 | 15.0 | 18.0 | 0.00 | 0.00 | 0.00 | 34 | 1017.5 |
| 20260905092025 | 71 | 166 | 10.0 | 17.0 | 0.00 | 0.00 | 0.00 | 33 | 1017.6 |
| 20260905091524 | 71 | 181 | 10.0 | 15.0 | 0.00 | 0.00 | 0.00 | 33 | 1017.4 |
| 20260905091019 | 72 | 145 | 15.0 | 17.0 | 0.00 | 0.00 | 0.00 | 33 | 1017.4 |
| 20260905090519 | 72 | 157 | 10.0 | 18.0 | 0.00 | 0.00 | 0.00 | 33 | 1017.4 |
| 20260905090014 | 72 | 163 | 9.0 | 15.0 | 0.00 | 0.00 | 0.00 | 32 | 1017.5 |
| 20260905085512 | 72 | 164 | 6.0 | 16.0 | 0.00 | 0.00 | 0.00 | 33 | 1017.4 |
| 20260905085009 | 72 | 154 | 14.0 | 17.0 | 0.00 | 0.00 | 0.00 | 32 | 1017.0 |
| 20260905084509 | 72 | 158 | 13.0 | 18.0 | 0.00 | 0.00 | 0.00 | 32 | 1017.1 |
| 20260905084009 | 72 | 168 | 11.0 | 15.0 | 0.00 | 0.00 | 0.00 | 32 | 1017.4 |
| 20260905083504 | 73 | 164 | 12.0 | 14.0 | 0.00 | 0.00 | 0.00 | 32 | 1017.4 |
| 20260905083000 | 72 | 161 | 8.0 | 17.0 | 0.00 | 0.00 | 0.00 | 32 | 1017.1 |
| 20260905082455 | 72 | 149 | 12.0 | 15.0 | 0.00 | 0.00 | 0.00 | 32 | 1017.1 |
| 20260905081950 | 73 | 159 | 9.0 | 16.0 | 0.00 | 0.00 | 0.00 | 31 | 1016.9 |
| 20260905081445 | 73 | 180 | 10.0 | 16.0 | 0.00 | 0.00 | 0.00 | 32 | 1016.8 |
| 20260905080944 | 73 | 142 | 16.0 | 17.0 | 0.00 | 0.00 | 0.00 | 31 | 1017.1 |
| 20260905080439 | 73 | 155 | 12.0 | 22.0 | 0.00 | 0.00 | 0.00 | 31 | 1016.9 |
| 20260905075938 | 73 | 160 | 9.0 | 17.0 | 0.00 | 0.00 | 0.00 | 32 | 1016.9 |
| 20260905075433 | 73 | 167 | 10.0 | 13.0 | 0.00 | 0.00 | 0.00 | 32 | 1017.0 |
| 20260905074932 | 73 | 148 | 11.0 | 16.0 | 0.00 | 0.00 | 0.00 | 32 | 1016.8 |
| 20260905074427 | 73 | 157 | 14.0 | 15.0 | 0.00 | 0.00 | 0.00 | 32 | 1016.8 |
| 20260905073923 | 74 | 155 | 11.0 | 16.0 | 0.00 | 0.00 | 0.00 | 31 | 1016.9 |
| 20260905073418 | 74 | 168 | 10.0 | 19.0 | 0.00 | 0.00 | 0.00 | 31 | 1016.8 |
| 20260905072914 | 73 | 161 | 7.0 | 17.0 | 0.00 | 0.00 | 0.00 | 32 | 1016.7 |
| 20260905072409 | 74 | 145 | 11.0 | 19.0 | 0.00 | 0.00 | 0.00 | 31 | 1016.6 |
| 20260905071904 | 74 | 141 | 15.0 | 18.0 | 0.00 | 0.00 | 0.00 | 32 | 1016.7 |
| 20260905071401 | 74 | 163 | 15.0 | 21.0 | 0.00 | 0.00 | 0.00 | 32 | 1016.4 |
| 20260905070900 | 74 | 139 | 15.0 | 19.0 | 0.00 | 0.00 | 0.00 | 32 | 1016.4 |
| 20260905070357 | 74 | 159 | 8.0 | 22.0 | 0.00 | 0.00 | 0.00 | 32 | 1016.6 |
| 20260905065856 | 74 | 130 | 15.0 | 21.0 | 0.00 | 0.00 | 0.00 | 31 | 1016.3 |
| 20260905065354 | 74 | 156 | 6.0 | 15.0 | 0.00 | 0.00 | 0.00 | 31 | 1016.0 |
| 20260905064850 | 74 | 136 | 7.0 | 17.0 | 0.00 | 0.00 | 0.00 | 31 | 1016.3 |
| 20260905064345 | 74 | 162 | 14.0 | 19.0 | 0.00 | 0.00 | 0.00 | 31 | 1016.1 |
| 20260905063843 | 74 | 170 | 9.0 | 17.0 | 0.00 | 0.00 | 0.00 | 31 | 1016.1 |
| 20260905063335 | 74 | 161 | 4.0 | 14.0 | 0.00 | 0.00 | 0.00 | 31 | 1016.1 |
| 20260905062830 | 74 | 159 | 13.0 | 15.0 | 0.00 | 0.00 | 0.00 | 30 | 1016.1 |
| 20260905062324 | 75 | 161 | 10.0 | 17.0 | 0.00 | 0.00 | 0.00 | 30 | 1016.1 |
| 20260905061819 | 75 | 171 | 8.0 | 15.0 | 0.00 | 0.00 | 0.00 | 30 | 1016.0 |
| 20260905061314 | 75 | 148 | 13.0 | 19.0 | 0.00 | 0.00 | 0.00 | 30 | 1016.1 |
| 20260905060808 | 75 | 162 | 11.0 | 18.0 | 0.00 | 0.00 | 0.00 | 29 | 1015.7 |
| 20260905060305 | 75 | 152 | 8.0 | 13.0 | 0.00 | 0.00 | 0.00 | 29 | 1015.9 |
| 20260905055804 | 75 | 159 | 9.0 | 17.0 | 0.00 | 0.00 | 0.00 | 30 | 1015.6 |
| 20260905055259 | 75 | 160 | 8.0 | 15.0 | 0.00 | 0.00 | 0.00 | 29 | 1015.7 |
| 20260905054759 | 75 | 150 | 10.0 | 19.0 | 0.00 | 0.00 | 0.00 | 29 | 1015.5 |
| 20260905054255 | 75 | 138 | 14.0 | 16.0 | 0.00 | 0.00 | 0.00 | 29 | 1015.5 |
| 20260905053754 | 75 | 160 | 11.0 | 14.0 | 0.00 | 0.00 | 0.00 | 29 | 1015.6 |
| 20260905053250 | 75 | 177 | 8.0 | 12.0 | 0.00 | 0.00 | 0.00 | 30 | 1015.4 |
| 20260905052749 | 75 | 143 | 7.0 | 13.0 | 0.00 | 0.00 | 0.00 | 29 | 1015.2 |
| 20260905052239 | 75 | 152 | 14.0 | 16.0 | 0.00 | 0.00 | 0.00 | 29 | 1015.2 |
| 20260905051738 | 75 | 147 | 5.0 | 13.0 | 0.00 | 0.00 | 0.00 | 29 | 1015.2 |
| 20260905051236 | 75 | 158 | 9.0 | 14.0 | 0.00 | 0.00 | 0.00 | 29 | 1015.4 |
| 20260905050731 | 76 | 149 | 8.0 | 11.0 | 0.00 | 0.00 | 0.00 | 28 | 1015.1 |
| 20260905050228 | 76 | 164 | 11.0 | 21.0 | 0.00 | 0.00 | 0.00 | 28 | 1015.2 |
| 20260905045727 | 76 | 184 | 11.0 | 15.0 | 0.00 | 0.00 | 0.00 | 28 | 1015.1 |
| 20260905045222 | 76 | 170 | 10.0 | 15.0 | 0.00 | 0.00 | 0.00 | 28 | 1014.9 |
| 20260905044717 | 76 | 139 | 16.0 | 17.0 | 0.00 | 0.00 | 0.00 | 28 | 1014.9 |
| 20260905044213 | 76 | 150 | 11.0 | 15.0 | 0.00 | 0.00 | 0.00 | 28 | 1014.9 |
| 20260905043712 | 76 | 141 | 11.0 | 12.0 | 0.00 | 0.00 | 0.00 | 28 | 1015.2 |
| 20260905043207 | 76 | 157 | 7.0 | 13.0 | 0.00 | 0.00 | 0.00 | 28 | 1014.9 |
| 20260905042707 | 77 | 166 | 10.0 | 15.0 | 0.00 | 0.00 | 0.00 | 28 | 1014.9 |
| 20260905042206 | 77 | 161 | 6.0 | 11.0 | 0.00 | 0.00 | 0.00 | 28 | 1015.2 |
| 20260905041702 | 77 | 148 | 12.0 | 16.0 | 0.00 | 0.00 | 0.00 | 28 | 1015.2 |
| 20260905041157 | 77 | 156 | 10.0 | 13.0 | 0.00 | 0.00 | 0.00 | 28 | 1015.1 |
| 20260905040652 | 77 | 156 | 11.0 | 18.0 | 0.00 | 0.00 | 0.00 | 28 | 1015.1 |
| 20260905040151 | 77 | 146 | 8.0 | 17.0 | 0.00 | 0.00 | 0.00 | 28 | 1014.8 |
| 20260905035646 | 77 | 151 | 8.0 | 13.0 | 0.00 | 0.00 | 0.00 | 28 | 1014.8 |
| 20260905035143 | 77 | 164 | 12.0 | 18.0 | 0.00 | 0.00 | 0.00 | 28 | 1015.1 |
| 20260905034638 | 77 | 144 | 13.0 | 15.0 | 0.00 | 0.00 | 0.00 | 28 | 1014.5 |
| 20260905034137 | 78 | 142 | 9.0 | 12.0 | 0.00 | 0.00 | 0.00 | 29 | 1014.9 |
| 20260905033636 | 78 | 142 | 9.0 | 15.0 | 0.00 | 0.00 | 0.00 | 28 | 1014.6 |
| 20260905033133 | 77 | 143 | 7.0 | 15.0 | 0.00 | 0.00 | 0.00 | 28 | 1014.8 |
| 20260905032632 | 77 | 147 | 11.0 | 14.0 | 0.00 | 0.00 | 0.00 | 29 | 1014.5 |
| 20260905032131 | 78 | 195 | 9.0 | 11.0 | 0.00 | 0.00 | 0.00 | 29 | 1014.5 |
| 20260905031628 | 78 | 190 | 7.0 | 11.0 | 0.00 | 0.00 | 0.00 | 29 | 1014.7 |
| 20260905031124 | 78 | 179 | 4.0 | 12.0 | 0.00 | 0.00 | 0.00 | 29 | 1014.4 |
| 20260905030624 | 78 | 177 | 10.0 | 12.0 | 0.00 | 0.00 | 0.00 | 28 | 1014.4 |
| 20260905030119 | 79 | 173 | 7.0 | 13.0 | 0.00 | 0.00 | 0.00 | 28 | 1014.2 |
| 20260905025614 | 79 | 163 | 9.0 | 14.0 | 0.00 | 0.00 | 0.00 | 28 | 1014.2 |
| 20260905025109 | 79 | 195 | 10.0 | 16.0 | 0.00 | 0.00 | 0.00 | 28 | 1014.0 |
| 20260905024605 | 79 | 127 | 13.0 | 18.0 | 0.00 | 0.00 | 0.00 | 29 | 1014.0 |
| 20260905024100 | 79 | 127 | 6.0 | 16.0 | 0.00 | 0.00 | 0.00 | 28 | 1013.9 |
| 20260905023555 | 79 | 139 | 13.0 | 15.0 | 0.00 | 0.00 | 0.00 | 28 | 1013.7 |
| 20260905023055 | 79 | 160 | 8.0 | 15.0 | 0.00 | 0.00 | 0.00 | 28 | 1013.8 |
| 20260905022555 | 79 | 154 | 7.0 | 14.0 | 0.00 | 0.00 | 0.00 | 28 | 1013.4 |
| 20260905022050 | 80 | 183 | 9.0 | 13.0 | 0.00 | 0.00 | 0.00 | 27 | 1013.6 |
| 20260905021550 | 80 | 157 | 5.0 | 9.0 | 0.00 | 0.00 | 0.00 | 27 | 1013.7 |
| 20260905021045 | 80 | 159 | 13.0 | 17.0 | 0.00 | 0.00 | 0.00 | 26 | 1013.6 |
| 20260905020544 | 81 | 148 | 9.0 | 17.0 | 0.00 | 0.00 | 0.00 | 25 | 1013.3 |
| 20260905020040 | 81 | 157 | 6.0 | 9.0 | 0.00 | 0.00 | 0.00 | 25 | 1013.4 |
| 20260905015538 | 81 | 175 | 7.0 | 21.0 | 0.00 | 0.00 | 0.00 | 24 | 1013.3 |
| 20260905015033 | 82 | 151 | 8.0 | 16.0 | 0.00 | 0.00 | 0.00 | 24 | 1013.2 |
| 20260905014528 | 82 | 158 | 8.0 | 23.0 | 0.00 | 0.00 | 0.00 | 24 | 1013.2 |
| 20260905014024 | 82 | 180 | 6.0 | 17.0 | 0.00 | 0.00 | 0.00 | 23 | 1013.2 |
| 20260905013520 | 82 | 166 | 10.0 | 13.0 | 0.00 | 0.00 | 0.00 | 23 | 1013.1 |
| 20260905013016 | 82 | 163 | 12.0 | 15.0 | 0.00 | 0.00 | 0.00 | 23 | 1013.2 |
| 20260905012509 | 83 | 164 | 17.0 | 17.0 | 0.00 | 0.00 | 0.00 | 23 | 1013.1 |
| 20260905012007 | 83 | 151 | 6.0 | 16.0 | 0.00 | 0.00 | 0.00 | 23 | 1013.3 |
| 20260905011502 | 83 | 209 | 10.0 | 15.0 | 0.00 | 0.00 | 0.00 | 23 | 1013.2 |
| 20260905010957 | 84 | 157 | 6.0 | 15.0 | 0.00 | 0.00 | 0.00 | 23 | 1013.0 |
| 20260905010457 | 85 | 150 | 6.0 | 12.0 | 0.00 | 0.00 | 0.00 | 22 | 1013.1 |
| 20260905005953 | 85 | 262 | 5.0 | 16.0 | 0.00 | 0.00 | 0.00 | 22 | 1013.1 |
| 20260905005449 | 85 | 163 | 11.0 | 12.0 | 0.00 | 0.00 | 0.00 | 22 | 1013.1 |
| 20260905004944 | 85 | 196 | 11.0 | 17.0 | 0.00 | 0.00 | 0.00 | 23 | 1013.2 |
| 20260905004439 | 85 | 179 | 12.0 | 14.0 | 0.00 | 0.00 | 0.00 | 22 | 1013.1 |
| 20260905003934 | 85 | 204 | 5.0 | 11.0 | 0.00 | 0.00 | 0.00 | 22 | 1013.0 |
| 20260905003430 | 86 | 170 | 7.0 | 9.0 | 0.00 | 0.00 | 0.00 | 21 | 1013.1 |
| 20260905002926 | 87 | 177 | 10.0 | 14.0 | 0.00 | 0.00 | 0.00 | 21 | 1013.0 |
| 20260905002426 | 87 | 173 | 10.0 | 18.0 | 0.00 | 0.00 | 0.00 | 20 | 1013.1 |
| 20260905001925 | 89 | 177 | 9.0 | 16.0 | 0.00 | 0.00 | 0.00 | 20 | 1012.9 |
| 20260905001420 | 88 | 205 | 9.0 | 14.0 | 0.00 | 0.00 | 0.00 | 19 | 1013.1 |
| 20260905000915 | 87 | 213 | 9.0 | 16.0 | 0.00 | 0.00 | 0.00 | 19 | 1013.2 |
| 20260905000410 | 87 | 194 | 1.0 | 24.0 | 0.00 | 0.00 | 0.00 | 20 | 1013.1 |
| 20260904235906 | 86 | 180 | 5.0 | 19.0 | 0.00 | 0.00 | 0.00 | 19 | 1013.2 |
| 20260904235402 | 88 | 192 | 4.0 | 17.0 | 0.00 | 0.00 | 0.00 | 18 | 1013.3 |
| 20260904234901 | 89 | 210 | 7.0 | 13.0 | 0.00 | 0.00 | 0.00 | 19 | 1013.2 |
| 20260904234356 | 88 | 151 | 6.0 | 13.0 | 0.00 | 0.00 | 0.00 | 18 | 1013.3 |
| 20260904233852 | 88 | 180 | 9.0 | 16.0 | 0.00 | 0.00 | 0.00 | 18 | 1013.4 |
| 20260904233347 | 88 | 172 | 13.0 | 19.0 | 0.00 | 0.00 | 0.00 | 18 | 1013.2 |
| 20260904232844 | 88 | 190 | 7.0 | 19.0 | 0.00 | 0.00 | 0.00 | 18 | 1013.3 |
| 20260904232340 | 87 | 156 | 12.0 | 18.0 | 0.00 | 0.00 | 0.00 | 19 | 1013.1 |
| 20260904231837 | 86 | 196 | 9.0 | 18.0 | 0.00 | 0.00 | 0.00 | 19 | 1013.6 |
| 20260904231336 | 85 | 163 | 20.0 | 26.0 | 0.00 | 0.00 | 0.00 | 19 | 1013.3 |
| 20260904230832 | 85 | 147 | 16.0 | 20.0 | 0.00 | 0.00 | 0.00 | 19 | 1013.4 |
| 20260904230330 | 86 | 170 | 3.0 | 18.0 | 0.00 | 0.00 | 0.00 | 20 | 1013.4 |
| 20260904225825 | 87 | 209 | 21.0 | 22.0 | 0.00 | 0.00 | 0.00 | 19 | 1013.3 |
| 20260904225324 | 86 | 168 | 12.0 | 26.0 | 0.00 | 0.00 | 0.00 | 19 | 1013.6 |
| 20260904224818 | 85 | 172 | 11.0 | 16.0 | 0.00 | 0.00 | 0.00 | 19 | 1013.4 |
| 20260904224314 | 85 | 185 | 10.0 | 17.0 | 0.00 | 0.00 | 0.00 | 19 | 1013.3 |
| 20260904223813 | 85 | 169 | 10.0 | 19.0 | 0.00 | 0.00 | 0.00 | 19 | 1013.3 |
| 20260904223313 | 85 | 179 | 19.0 | 19.0 | 0.00 | 0.00 | 0.00 | 19 | 1013.7 |
| 20260904222809 | 85 | 211 | 6.0 | 18.0 | 0.00 | 0.00 | 0.00 | 19 | 1013.4 |
| 20260904222306 | 85 | 168 | 11.0 | 21.0 | 0.00 | 0.00 | 0.00 | 19 | 1013.8 |
| 20260904221759 | 85 | 204 | 12.0 | 26.0 | 0.00 | 0.00 | 0.00 | 18 | 1013.9 |
| 20260904221258 | 85 | 168 | 13.0 | 16.0 | 0.00 | 0.00 | 0.00 | 20 | 1013.7 |
| 20260904220754 | 84 | 227 | 11.0 | 19.0 | 0.00 | 0.00 | 0.00 | 19 | 1013.8 |
| 20260904220253 | 84 | 161 | 17.0 | 24.0 | 0.00 | 0.00 | 0.00 | 19 | 1014.0 |
| 20260904215748 | 84 | 188 | 12.0 | 22.0 | 0.00 | 0.00 | 0.00 | 20 | 1013.8 |
| 20260904215243 | 84 | 184 | 8.0 | 18.0 | 0.00 | 0.00 | 0.00 | 19 | 1014.0 |
| 20260904214739 | 84 | 156 | 19.0 | 22.0 | 0.00 | 0.00 | 0.00 | 19 | 1014.0 |
| 20260904214235 | 84 | 182 | 13.0 | 18.0 | 0.00 | 0.00 | 0.00 | 19 | 1014.1 |
| 20260904213732 | 85 | 188 | 8.0 | 23.0 | 0.00 | 0.00 | 0.00 | 19 | 1014.1 |
| 20260904213229 | 85 | 186 | 9.0 | 14.0 | 0.00 | 0.00 | 0.00 | 20 | 1014.2 |
| 20260904212724 | 84 | 178 | 13.0 | 19.0 | 0.00 | 0.00 | 0.00 | 20 | 1014.2 |
| 20260904212219 | 84 | 154 | 21.0 | 23.0 | 0.00 | 0.00 | 0.00 | 19 | 1014.2 |
| 20260904211719 | 84 | 202 | 2.0 | 9.0 | 0.00 | 0.00 | 0.00 | 19 | 1014.4 |
| 20260904211214 | 84 | 173 | 11.0 | 21.0 | 0.00 | 0.00 | 0.00 | 19 | 1014.5 |
| 20260904210714 | 84 | 169 | 12.0 | 23.0 | 0.00 | 0.00 | 0.00 | 18 | 1014.5 |
| 20260904210209 | 84 | 185 | 14.0 | 21.0 | 0.00 | 0.00 | 0.00 | 21 | 1014.5 |
| 20260904205706 | 84 | 169 | 2.0 | 16.0 | 0.00 | 0.00 | 0.00 | 19 | 1014.1 |
| 20260904205201 | 84 | 187 | 8.0 | 22.0 | 0.00 | 0.00 | 0.00 | 19 | 1014.5 |
| 20260904204657 | 84 | 205 | 5.0 | 11.0 | 0.00 | 0.00 | 0.00 | 22 | 1014.7 |
| 20260904204153 | 84 | 180 | 6.0 | 17.0 | 0.00 | 0.00 | 0.00 | 21 | 1014.6 |
| 20260904203649 | 84 | 161 | 6.0 | 13.0 | 0.00 | 0.00 | 0.00 | 21 | 1014.5 |
| 20260904203146 | 84 | 202 | 6.0 | 17.0 | 0.00 | 0.00 | 0.00 | 20 | 1014.9 |
| 20260904202641 | 84 | 161 | 13.0 | 20.0 | 0.00 | 0.00 | 0.00 | 20 | 1014.7 |
| 20260904202138 | 84 | 148 | 16.0 | 31.0 | 0.00 | 0.00 | 0.00 | 20 | 1014.8 |
| 20260904201637 | 84 | 147 | 11.0 | 16.0 | 0.00 | 0.00 | 0.00 | 21 | 1015.2 |
| 20260904201133 | 83 | 161 | 12.0 | 24.0 | 0.00 | 0.00 | 0.00 | 21 | 1014.9 |
| 20260904200632 | 83 | 136 | 7.0 | 17.0 | 0.00 | 0.00 | 0.00 | 20 | 1015.2 |
| 20260904200127 | 83 | 127 | 12.0 | 27.0 | 0.00 | 0.00 | 0.00 | 21 | 1015.1 |
| 20260904195626 | 84 | 185 | 13.0 | 23.0 | 0.00 | 0.00 | 0.00 | 21 | 1015.3 |
| 20260904195125 | 84 | 173 | 8.0 | 13.0 | 0.00 | 0.00 | 0.00 | 23 | 1015.3 |
| 20260904194620 | 84 | 174 | 9.0 | 16.0 | 0.00 | 0.00 | 0.00 | 21 | 1015.2 |
| 20260904194115 | 83 | 180 | 12.0 | 23.0 | 0.00 | 0.00 | 0.00 | 23 | 1015.4 |
| 20260904193615 | 83 | 157 | 11.0 | 28.0 | 0.00 | 0.00 | 0.00 | 22 | 1015.6 |
| 20260904193111 | 83 | 173 | 17.0 | 23.0 | 0.00 | 0.00 | 0.00 | 23 | 1015.5 |
| 20260904192611 | 82 | 155 | 8.0 | 17.0 | 0.00 | 0.00 | 0.00 | 24 | 1015.4 |
| 20260904192107 | 82 | 141 | 17.0 | 20.0 | 0.00 | 0.00 | 0.00 | 24 | 1015.3 |
| 20260904191603 | 82 | 161 | 15.0 | 19.0 | 0.00 | 0.00 | 0.00 | 26 | 1015.6 |
| 20260904191059 | 82 | 149 | 14.0 | 21.0 | 0.00 | 0.00 | 0.00 | 24 | 1015.4 |
| 20260904190555 | 82 | 169 | 10.0 | 19.0 | 0.00 | 0.00 | 0.00 | 23 | 1015.4 |
| 20260904190051 | 81 | 160 | 9.0 | 21.0 | 0.00 | 0.00 | 0.00 | 24 | 1015.6 |
| 20260904185548 | 82 | 187 | 7.0 | 26.0 | 0.00 | 0.00 | 0.00 | 24 | 1015.9 |
| 20260904185042 | 82 | 159 | 18.0 | 21.0 | 0.00 | 0.00 | 0.00 | 24 | 1016.0 |
| 20260904184537 | 81 | 185 | 10.0 | 21.0 | 0.00 | 0.00 | 0.00 | 24 | 1015.9 |
| 20260904184032 | 82 | 192 | 13.0 | 17.0 | 0.00 | 0.00 | 0.00 | 25 | 1016.1 |
| 20260904183527 | 81 | 174 | 8.0 | 13.0 | 0.00 | 0.00 | 0.00 | 25 | 1016.2 |
| 20260904183022 | 81 | 187 | 8.0 | 17.0 | 0.00 | 0.00 | 0.00 | 24 | 1016.0 |
| 20260904182518 | 81 | 168 | 13.0 | 24.0 | 0.00 | 0.00 | 0.00 | 25 | 1016.2 |
| 20260904182017 | 81 | 186 | 18.0 | 27.0 | 0.00 | 0.00 | 0.00 | 26 | 1016.1 |
| 20260904181513 | 80 | 153 | 15.0 | 20.0 | 0.00 | 0.00 | 0.00 | 25 | 1016.4 |
| 20260904181013 | 80 | 160 | 12.0 | 25.0 | 0.00 | 0.00 | 0.00 | 26 | 1016.1 |
| 20260904180513 | 80 | 175 | 16.0 | 23.0 | 0.00 | 0.00 | 0.00 | 25 | 1016.4 |
| 20260904180008 | 81 | 161 | 14.0 | 18.0 | 0.00 | 0.00 | 0.00 | 26 | 1016.2 |
| 20260904175502 | 80 | 170 | 7.0 | 19.0 | 0.00 | 0.00 | 0.00 | 27 | 1016.2 |
| 20260904175001 | 80 | 143 | 8.0 | 23.0 | 0.00 | 0.00 | 0.00 | 26 | 1016.6 |
| 20260904174456 | 80 | 127 | 11.0 | 17.0 | 0.00 | 0.00 | 0.00 | 26 | 1016.6 |
| 20260904173953 | 80 | 182 | 11.0 | 21.0 | 0.00 | 0.00 | 0.00 | 26 | 1016.3 |
| 20260904173453 | 80 | 159 | 24.0 | 27.0 | 0.00 | 0.00 | 0.00 | 26 | 1016.6 |
| 20260904172949 | 80 | 155 | 11.0 | 18.0 | 0.00 | 0.00 | 0.00 | 27 | 1016.4 |
| 20260904172444 | 80 | 141 | 15.0 | 27.0 | 0.00 | 0.00 | 0.00 | 26 | 1016.2 |
| 20260904171943 | 80 | 182 | 6.0 | 26.0 | 0.00 | 0.00 | 0.00 | 25 | 1016.6 |
| 20260904171439 | 79 | 150 | 10.0 | 16.0 | 0.00 | 0.00 | 0.00 | 27 | 1016.0 |
| 20260904170935 | 79 | 163 | 15.0 | 26.0 | 0.00 | 0.00 | 0.00 | 26 | 1016.4 |
| 20260904170430 | 79 | 122 | 11.0 | 20.0 | 0.00 | 0.00 | 0.00 | 25 | 1016.4 |
| 20260904165925 | 79 | 154 | 20.0 | 26.0 | 0.00 | 0.00 | 0.00 | 25 | 1016.4 |
| 20260904165425 | 80 | 134 | 8.0 | 21.0 | 0.00 | 0.00 | 0.00 | 25 | 1016.4 |
| 20260904164924 | 79 | 140 | 8.0 | 12.0 | 0.00 | 0.00 | 0.00 | 26 | 1016.4 |
| 20260904164424 | 79 | 138 | 14.0 | 15.0 | 0.00 | 0.00 | 0.00 | 25 | 1016.4 |
| 20260904163921 | 79 | 128 | 9.0 | 18.0 | 0.00 | 0.00 | 0.00 | 25 | 1016.3 |
| 20260904163420 | 79 | 99 | 8.0 | 17.0 | 0.00 | 0.00 | 0.00 | 24 | 1016.3 |
| 20260904162919 | 79 | 156 | 9.0 | 23.0 | 0.00 | 0.00 | 0.00 | 24 | 1016.6 |
| 20260904162415 | 79 | 149 | 11.0 | 16.0 | 0.00 | 0.00 | 0.00 | 25 | 1016.7 |
| 20260904161910 | 78 | 158 | 7.0 | 16.0 | 0.00 | 0.00 | 0.00 | 26 | 1016.3 |
| 20260904161405 | 78 | 175 | 14.0 | 20.0 | 0.00 | 0.00 | 0.00 | 25 | 1016.7 |
| 20260904160901 | 79 | 163 | 7.0 | 18.0 | 0.00 | 0.00 | 0.00 | 25 | 1016.7 |
| 20260904160356 | 79 | 194 | 10.0 | 14.0 | 0.00 | 0.00 | 0.00 | 23 | 1016.4 |
| 20260904155851 | 78 | 180 | 6.0 | 14.0 | 0.00 | 0.00 | 0.00 | 23 | 1016.3 |
| 20260904155346 | 78 | 146 | 9.0 | 18.0 | 0.00 | 0.00 | 0.00 | 23 | 1016.4 |
| 20260904154844 | 78 | 148 | 10.0 | 21.0 | 0.00 | 0.00 | 0.00 | 23 | 1016.2 |
| 20260904154339 | 78 | 167 | 5.0 | 9.0 | 0.00 | 0.00 | 0.00 | 22 | 1016.2 |
| 20260904153835 | 78 | 158 | 8.0 | 14.0 | 0.00 | 0.00 | 0.00 | 23 | 1016.3 |
| 20260904153330 | 78 | 164 | 11.0 | 16.0 | 0.00 | 0.00 | 0.00 | 24 | 1016.1 |
| 20260904152827 | 78 | 179 | 7.0 | 11.0 | 0.00 | 0.00 | 0.00 | 24 | 1016.0 |
| 20260904152326 | 77 | 162 | 10.0 | 18.0 | 0.00 | 0.00 | 0.00 | 24 | 1015.9 |
| 20260904151821 | 77 | 149 | 4.0 | 21.0 | 0.00 | 0.00 | 0.00 | 22 | 1016.2 |
| 20260904151320 | 76 | 176 | 7.0 | 14.0 | 0.00 | 0.00 | 0.00 | 24 | 1016.1 |
| 20260904150817 | 75 | 151 | 12.0 | 19.0 | 0.00 | 0.00 | 0.00 | 24 | 1015.9 |
| 20260904150312 | 73 | 165 | 9.0 | 10.0 | 0.00 | 0.00 | 0.00 | 25 | 1015.9 |
| 20260904145809 | 72 | 154 | 10.0 | 17.0 | 0.00 | 0.00 | 0.00 | 26 | 1016.0 |
| 20260904145306 | 72 | 156 | 5.0 | 9.0 | 0.00 | 0.00 | 0.00 | 27 | 1015.9 |
| 20260904144801 | 72 | 202 | 4.0 | 11.0 | 0.00 | 0.00 | 0.00 | 27 | 1015.9 |
| 20260904144257 | 72 | 167 | 5.0 | 13.0 | 0.00 | 0.00 | 0.00 | 27 | 1015.6 |
| 20260904143752 | 72 | 171 | 7.0 | 13.0 | 0.00 | 0.00 | 0.00 | 27 | 1016.1 |
| 20260904143249 | 71 | 192 | 11.0 | 16.0 | 0.00 | 0.00 | 0.00 | 27 | 1015.7 |
| 20260904142744 | 71 | 177 | 5.0 | 20.0 | 0.00 | 0.00 | 0.00 | 26 | 1016.0 |
| 20260904142241 | 71 | 147 | 6.0 | 17.0 | 0.00 | 0.00 | 0.00 | 27 | 1015.7 |
| 20260904141740 | 70 | 177 | 10.0 | 16.0 | 0.00 | 0.00 | 0.00 | 26 | 1015.9 |
| 20260904141236 | 71 | 181 | 7.0 | 16.0 | 0.00 | 0.00 | 0.00 | 25 | 1015.6 |
| 20260904140731 | 70 | 155 | 12.0 | 20.0 | 0.00 | 0.00 | 0.00 | 25 | 1015.4 |
| 20260904140226 | 70 | 161 | 12.0 | 19.0 | 0.00 | 0.00 | 0.00 | 24 | 1015.7 |
| 20260904135725 | 69 | 165 | 9.0 | 14.0 | 0.00 | 0.00 | 0.00 | 26 | 1015.6 |
| 20260904135221 | 68 | 168 | 9.0 | 15.0 | 0.00 | 0.00 | 0.00 | 25 | 1015.6 |
| 20260904134716 | 68 | 170 | 9.0 | 13.0 | 0.00 | 0.00 | 0.00 | 25 | 1015.5 |
| 20260904134216 | 68 | 163 | 12.0 | 17.0 | 0.00 | 0.00 | 0.00 | 25 | 1015.5 |
| 20260904133710 | 68 | 162 | 12.0 | 17.0 | 0.00 | 0.00 | 0.00 | 24 | 1015.4 |
| 20260904133207 | 68 | 153 | 11.0 | 21.0 | 0.00 | 0.00 | 0.00 | 23 | 1015.6 |
| 20260904132706 | 68 | 168 | 9.0 | 15.0 | 0.00 | 0.00 | 0.00 | 24 | 1015.5 |
| 20260904132202 | 68 | 157 | 15.0 | 20.0 | 0.00 | 0.00 | 0.00 | 23 | 1015.3 |
| 20260904131700 | 69 | 166 | 11.0 | 15.0 | 0.00 | 0.00 | 0.00 | 23 | 1015.5 |
| 20260904131157 | 68 | 144 | 13.0 | 17.0 | 0.00 | 0.00 | 0.00 | 23 | 1015.1 |
| 20260904130656 | 68 | 193 | 15.0 | 17.0 | 0.00 | 0.00 | 0.00 | 22 | 1015.2 |
| 20260904130156 | 69 | 163 | 6.0 | 14.0 | 0.00 | 0.00 | 0.00 | 22 | 1015.3 |
| 20260904125652 | 68 | 158 | 14.0 | 16.0 | 0.00 | 0.00 | 0.00 | 22 | 1015.1 |
| 20260904125148 | 68 | 179 | 9.0 | 15.0 | 0.00 | 0.00 | 0.00 | 22 | 1015.2 |
| 20260904124643 | 68 | 168 | 13.0 | 18.0 | 0.00 | 0.00 | 0.00 | 22 | 1014.9 |
| 20260904124138 | 69 | 170 | 13.0 | 19.0 | 0.00 | 0.00 | 0.00 | 22 | 1014.9 |
| 20260904123633 | 69 | 155 | 13.0 | 22.0 | 0.00 | 0.00 | 0.00 | 21 | 1014.7 |
| 20260904123129 | 69 | 146 | 13.0 | 19.0 | 0.00 | 0.00 | 0.00 | 22 | 1014.6 |
| 20260904122629 | 69 | 159 | 10.0 | 20.0 | 0.00 | 0.00 | 0.00 | 22 | 1014.7 |
| 20260904122124 | 69 | 139 | 14.0 | 26.0 | 0.00 | 0.00 | 0.00 | 21 | 1014.4 |
| 20260904121619 | 69 | 183 | 9.0 | 25.0 | 0.00 | 0.00 | 0.00 | 21 | 1014.5 |
| 20260904121114 | 69 | 162 | 13.0 | 20.0 | 0.00 | 0.00 | 0.00 | 21 | 1014.6 |
| 20260904120611 | 69 | 149 | 18.0 | 21.0 | 0.00 | 0.00 | 0.00 | 21 | 1014.4 |
| 20260904120106 | 69 | 161 | 17.0 | 21.0 | 0.00 | 0.00 | 0.00 | 21 | 1014.6 |
| 20260904115601 | 69 | 153 | 15.0 | 22.0 | 0.00 | 0.00 | 0.00 | 21 | 1014.4 |
| 20260904115056 | 69 | 155 | 12.0 | 23.0 | 0.00 | 0.00 | 0.00 | 20 | 1014.6 |
| 20260904114557 | 69 | 153 | 13.0 | 21.0 | 0.00 | 0.00 | 0.00 | 20 | 1014.1 |
| 20260904114057 | 69 | 156 | 12.0 | 19.0 | 0.00 | 0.00 | 0.00 | 20 | 1014.2 |
| 20260904113556 | 70 | 163 | 10.0 | 19.0 | 0.00 | 0.00 | 0.00 | 20 | 1014.2 |
| 20260904113056 | 70 | 151 | 14.0 | 21.0 | 0.00 | 0.00 | 0.00 | 19 | 1014.4 |
| 20260904112551 | 70 | 160 | 14.0 | 17.0 | 0.00 | 0.00 | 0.00 | 19 | 1014.2 |
| 20260904112048 | 70 | 151 | 8.0 | 21.0 | 0.00 | 0.00 | 0.00 | 19 | 1014.1 |
| 20260904111543 | 70 | 173 | 13.0 | 16.0 | 0.00 | 0.00 | 0.00 | 19 | 1014.1 |
| 20260904111038 | 71 | 163 | 10.0 | 19.0 | 0.00 | 0.00 | 0.00 | 18 | 1014.2 |
| 20260904110538 | 71 | 154 | 17.0 | 20.0 | 0.00 | 0.00 | 0.00 | 18 | 1014.0 |
| 20260904110034 | 71 | 166 | 9.0 | 16.0 | 0.00 | 0.00 | 0.00 | 18 | 1014.1 |
| 20260904105533 | 70 | 161 | 14.0 | 20.0 | 0.00 | 0.00 | 0.00 | 19 | 1013.9 |
| 20260904105028 | 71 | 162 | 11.0 | 17.0 | 0.00 | 0.00 | 0.00 | 18 | 1013.8 |
| 20260904104524 | 70 | 148 | 12.0 | 21.0 | 0.00 | 0.00 | 0.00 | 17 | 1013.9 |
| 20260904104019 | 70 | 179 | 11.0 | 16.0 | 0.00 | 0.00 | 0.00 | 18 | 1013.9 |
| 20260904103515 | 70 | 173 | 12.0 | 19.0 | 0.00 | 0.00 | 0.00 | 18 | 1013.8 |
| 20260904103011 | 70 | 146 | 12.0 | 22.0 | 0.00 | 0.00 | 0.00 | 17 | 1013.9 |
| 20260904102507 | 70 | 168 | 19.0 | 21.0 | 0.00 | 0.00 | 0.00 | 18 | 1014.0 |
| 20260904102002 | 71 | 169 | 11.0 | 25.0 | 0.00 | 0.00 | 0.00 | 17 | 1013.7 |
| 20260904101459 | 71 | 149 | 11.0 | 17.0 | 0.00 | 0.00 | 0.00 | 17 | 1013.4 |
| 20260904100954 | 71 | 151 | 14.0 | 20.0 | 0.00 | 0.00 | 0.00 | 17 | 1013.7 |
| 20260904100449 | 71 | 147 | 8.0 | 14.0 | 0.00 | 0.00 | 0.00 | 17 | 1013.6 |
| 20260904095948 | 71 | 142 | 15.0 | 27.0 | 0.00 | 0.00 | 0.00 | 17 | 1013.3 |